Location: Bukit Setapoh
(2.2500°N, 113.8000°E)
Time: 22:21:43
(UTC+00:00)

Tsikada Rocket - Pass Details

Date: 25 July 2021
Orbit: 958 x 1009 km, 82.9° (Epoch: 18 September)

Event Time Altitude Azimuth Distance (km) Brightness Sun altitude
Rises 11:24:26 0° 178° (S) 3,636 6.8 -11.7°
Reaches altitude 10° 11:26:57 10° 175° (S) 2,688 6.1 -12.3°
Maximum altitude 11:33:03 67° 93° (E) 1,032 3.9 -13.7°
Drops below altitude 10° 11:39:08 10° 11° (N) 2,693 6.4 -15.1°
Sets 11:41:39 0° 9° (N) 3,643 7.2 -15.7°
